Lander, WY

6:52 AM MDT on July 21, 2017 (GMT -0600)
Hunt

Weather History for KLND - March, 2013

Change the Weather History Date:

Sunday, March 10, 2013

  Actual Average Record
Temperature  
Mean Temperature 36 °F 34 °F  
Max Temperature 51 °F 46 °F 72 °F (1989)
Min Temperature 21 °F 22 °F -11 °F (1948)
Degree Days  
Heating Degree Days 29 31  
Month to date heating degree days 309 330  
Since 1 July heating degree days 5678 6034  
Cooling Degree Days 0 0  
Month to date cooling degree days 0 0  
Year to date cooling degree days 0 0  
Moisture  
Dew Point 14 °F    
Average Humidity 45    
Maximum Humidity 68    
Minimum Humidity 21    
Precipitation  
Precipitation 0.00 in 0.03 in 0.84 in (1906)
Month to date precipitation T 0.28  
Year to date precipitation 1.98 1.27  
Snow  
Snow 0.00 in 0.50 in - ()
Month to date snowfall T 4.3  
Since 1 July snowfall 52.2 57.9  
Snow Depth 0.00 in    
Sea Level Pressure  
Sea Level Pressure 30.13 in    
Wind  
Wind Speed 5 mph (South)    
Max Wind Speed 15 mph    
Max Gust Speed 17 mph    
Visibility 10 miles    
Events      
T = Trace of Precipitation, MM = Missing Value Source: NWS Daily Summary

Daily Weather History Graph

Daily Weather History Graph

Search for Another Location

Airport or City:

Trip Planner

Search our weather history database for the weather conditions in past years. The results will help you decide how hot, cold, wet, or windy it might be!

Date:

Astronomy

Mar. 10, 2013 Rise Set
Actual Time 7:35 AM MDT 7:15 PM MDT
Civil Twilight 7:06 AM MDT 7:43 PM MDT
Nautical Twilight 6:34 AM MDT 8:16 PM MDT
Astronomical Twilight 6:01 AM MDT 8:49 PM MDT
Moon 6:37 AM MDT (3/10) 6:26 PM MDT (3/10)
Length of Visible Light 12h 37m
Length of Day
11h 40m
Waning Crescent, 1% of the Moon is Illuminated
Mar 10
Waning Crescent
Mar 11
New
Mar 19
First Quarter
Mar 27
Full
Apr 2
Last Quarter

Hourly Weather History & Observations

Time (MDT) Temp. Windchill Dew Point Humidity Pressure Visibility Wind Dir Wind Speed Gust Speed Precip Events Conditions
12:53 AM 26.1 °F 18.4 °F 12.9 °F 58% 30.24 in 10.0 mi SW 6.9 mph - N/A   Clear
1:53 AM 25.0 °F 17.1 °F 12.0 °F 58% 30.25 in 10.0 mi SW 6.9 mph - N/A   Clear
3:53 AM 25.0 °F 19.3 °F 12.0 °F 58% 30.23 in 10.0 mi SW 4.6 mph - N/A   Clear
4:53 AM 21.0 °F 16.2 °F 12.9 °F 71% 30.22 in 10.0 mi East 3.5 mph - N/A   Clear
5:53 AM 23.0 °F - 12.0 °F 63% 30.23 in 10.0 mi Calm Calm - N/A   Clear
6:53 AM 25.0 °F - 10.0 °F 53% 30.25 in 10.0 mi Calm Calm - N/A   Clear
7:53 AM 21.9 °F 17.2 °F 10.0 °F 60% 30.27 in 10.0 mi SW 3.5 mph - N/A   Clear
8:53 AM 25.0 °F 20.7 °F 12.9 °F 60% 30.27 in 10.0 mi SE 3.5 mph - N/A   Clear
9:53 AM 30.9 °F 27.5 °F 15.1 °F 52% 30.26 in 10.0 mi ESE 3.5 mph - N/A   Clear
10:53 AM 37.0 °F 33.3 °F 16.0 °F 42% 30.23 in 10.0 mi SE 4.6 mph - N/A   Clear
11:53 AM 44.1 °F 38.6 °F 10.9 °F 26% 30.17 in 10.0 mi SE 10.4 mph - N/A   Clear
12:53 PM 46.0 °F 39.6 °F 12.0 °F 25% 30.14 in 10.0 mi SE 15.0 mph - N/A   Clear
1:53 PM 46.9 °F - 12.0 °F 24% 30.12 in 10.0 mi ESE 5.8 mph - N/A   Clear
2:53 PM 48.9 °F - 14.0 °F 25% 30.07 in 10.0 mi ESE 3.5 mph - N/A   Clear
3:53 PM 48.9 °F - 12.9 °F 24% 30.06 in 10.0 mi Calm Calm - N/A   Clear
4:53 PM 50.0 °F - 12.9 °F 23% 30.03 in 10.0 mi SSE 3.5 mph - N/A   Clear
5:53 PM 50.0 °F - 12.0 °F 22% 30.02 in 10.0 mi Calm Calm - N/A   Clear
6:53 PM 45.0 °F 41.2 °F 19.0 °F 36% 30.04 in 10.0 mi WSW 6.9 mph - N/A   Clear
7:53 PM 41.0 °F 35.2 °F 21.9 °F 47% 30.06 in 10.0 mi WSW 9.2 mph - N/A   Clear
8:53 PM 42.1 °F - 19.9 °F 41% 30.06 in 10.0 mi Calm Calm - N/A   Clear
9:53 PM 39.0 °F - 21.0 °F 49% 30.05 in 10.0 mi Calm Calm - N/A   Partly Cloudy
10:53 PM 39.0 °F 33.4 °F 19.9 °F 46% 30.03 in 10.0 mi West 8.1 mph - N/A   Clear
11:53 PM 41.0 °F 36.4 °F 14.0 °F 33% 29.98 in 10.0 mi West 6.9 mph - N/A   Clear
12:53 AM 39.9 °F 36.7 °F 14.0 °F 35% 29.95 in 10.0 mi WNW 4.6 mph - N/A   Clear